When you browse on this site, cookies collect data to enhance your experience and personalize the content and advertising you see.
Visit our Privacy Policy to learn more. By continuing to use the site, you agree to this use of cookies and data.
  • en France
  • Liste des pays
  • À 7 jours
  • Température de l'eau
  • Carte météo
  • Widgets météo
  • user-avatar
    Se connecter

    Météo par heure à Kosice

    Ce jour, 31 Mai, Dimanche

    Heure Température Précipitation Vent Pression Humidité
    00:00 +9°C° 0.2 mm 2 m/s 733 mmHg 90%
    01:00 +9°C° 0 mm 3 m/s 733 mmHg 90%
    02:00 +9°C° 0.3 mm 2 m/s 732 mmHg 92%
    03:00 +9°C° 0.3 mm 2 m/s 732 mmHg 93%
    04:00 +8°C° 0.3 mm 2 m/s 731 mmHg 94%
    05:00 +9°C° 0.5 mm 2 m/s 731 mmHg 94%
    06:00 +9°C° 0.5 mm 2 m/s 731 mmHg 94%
    07:00 +9°C° 0 mm 2 m/s 731 mmHg 94%
    08:00 +9°C° 0.2 mm 2 m/s 731 mmHg 94%
    09:00 +9°C° 0.2 mm 2 m/s 731 mmHg 93%
    10:00 +10°C° 0.2 mm 2 m/s 731 mmHg 92%
    11:00 +10°C° 0.1 mm 2 m/s 732 mmHg 92%
    12:00 +12°C° 0.1 mm 2 m/s 732 mmHg 91%
    13:00 +12°C° 0.1 mm 1 m/s 732 mmHg 90%
    14:00 +12°C° 0.1 mm 1 m/s 732 mmHg 90%
    15:00 +13°C° 0.1 mm 1 m/s 732 mmHg 90%
    16:00 +13°C° 0.1 mm 2 m/s 732 mmHg 90%
    17:00 +13°C° 0.3 mm 2 m/s 733 mmHg 92%
    18:00 +12°C° 0.3 mm 2 m/s 733 mmHg 93%
    19:00 +12°C° 0.3 mm 2 m/s 733 mmHg 95%
    20:00 +12°C° 0.5 mm 2 m/s 733 mmHg 95%
    21:00 +11°C° 0.5 mm 3 m/s 734 mmHg 96%
    22:00 +11°C° 0.5 mm 3 m/s 734 mmHg 96%
    23:00 +11°C° 0.2 mm 3 m/s 734 mmHg 96%

    Demain, 1 Juin, Lundi

    Heure Température Précipitation Vent Pression Humidité
    00:00 +11°C° 0.2 mm 3 m/s 735 mmHg 96%
    01:00 +11°C° 0.2 mm 3 m/s 735 mmHg 95%
    02:00 +11°C° 0 mm 4 m/s 735 mmHg 95%
    03:00 +11°C° 0 mm 4 m/s 735 mmHg 95%
    04:00 +11°C° 0 mm 4 m/s 735 mmHg 94%
    05:00 +10°C° 0 mm 5 m/s 735 mmHg 91%
    06:00 +12°C° 0 mm 5 m/s 736 mmHg 88%
    07:00 +13°C° 0 mm 5 m/s 736 mmHg 84%
    08:00 +13°C° 0.1 mm 6 m/s 736 mmHg 78%
    09:00 +14°C° 0.1 mm 6 m/s 736 mmHg 71%
    10:00 +15°C° 0.1 mm 6 m/s 736 mmHg 64%
    11:00 +16°C° 0.1 mm 6 m/s 736 mmHg 60%
    12:00 +17°C° 0.1 mm 6 m/s 736 mmHg 55%
    13:00 +17°C° 0.1 mm 6 m/s 736 mmHg 50%
    14:00 +17°C° 0 mm 6 m/s 736 mmHg 51%
    15:00 +16°C° 0 mm 7 m/s 736 mmHg 53%
    16:00 +16°C° 0 mm 7 m/s 736 mmHg 54%
    17:00 +14°C° 0 mm 6 m/s 736 mmHg 60%
    18:00 +13°C° 0 mm 5 m/s 736 mmHg 67%
    19:00 +11°C° 0 mm 4 m/s 736 mmHg 73%
    20:00 +10°C° 0 mm 4 m/s 736 mmHg 76%
    21:00 +9°C° 0 mm 3 m/s 736 mmHg 80%
    22:00 +7°C° 0 mm 3 m/s 736 mmHg 83%
    23:00 +7°C° 0 mm 3 m/s 736 mmHg 84%

    Après-demain, 2 Juin, Mardi

    Heure Température Précipitation Vent Pression Humidité
    00:00 +5°C° 0 mm 3 m/s 736 mmHg 86%
    01:00 +6°C° 0 mm 2 m/s 736 mmHg 87%
    02:00 +6°C° 0.4 mm 2 m/s 735 mmHg 88%
    03:00 +7°C° 0.4 mm 2 m/s 735 mmHg 89%
    04:00 +7°C° 0.4 mm 2 m/s 735 mmHg 90%
    05:00 +8°C° 0.2 mm 3 m/s 735 mmHg 86%
    06:00 +9°C° 0.2 mm 3 m/s 735 mmHg 82%
    07:00 +10°C° 0.2 mm 3 m/s 735 mmHg 78%
    08:00 +12°C° 0.1 mm 4 m/s 735 mmHg 68%
    09:00 +13°C° 0.1 mm 4 m/s 735 mmHg 59%
    10:00 +15°C° 0.1 mm 4 m/s 735 mmHg 50%
    11:00 +15°C° 0 mm 4 m/s 734 mmHg 49%
    12:00 +15°C° 0 mm 4 m/s 734 mmHg 48%
    13:00 +17°C° 0 mm 3 m/s 733 mmHg 48%
    14:00 +17°C° 0.1 mm 4 m/s 733 mmHg 51%
    15:00 +17°C° 0.1 mm 4 m/s 733 mmHg 54%
    16:00 +15°C° 0.1 mm 4 m/s 732 mmHg 58%
    17:00 +14°C° 0.1 mm 3 m/s 732 mmHg 64%
    18:00 +13°C° 0.1 mm 2 m/s 732 mmHg 71%
    19:00 +12°C° 0.1 mm 2 m/s 731 mmHg 77%
    20:00 +10°C° 0 mm 2 m/s 731 mmHg 81%
    21:00 +10°C° 0 mm 1 m/s 731 mmHg 84%
    22:00 +9°C° 0 mm 1 m/s 731 mmHg 87%
    23:00 +9°C° 0 mm 1 m/s 731 mmHg 86%

    3 Juin, Mercredi

    Heure Température Précipitation Vent Pression Humidité
    00:00 +8°C° 0 mm 1 m/s 731 mmHg 85%
    01:00 +8°C° 0 mm 1 m/s 731 mmHg 85%
    02:00 +8°C° 0 mm 1 m/s 731 mmHg 85%
    03:00 +8°C° 0 mm 1 m/s 731 mmHg 85%
    04:00 +8°C° 0 mm 1 m/s 730 mmHg 85%
    05:00 +10°C° 0 mm 1 m/s 730 mmHg 80%
    06:00 +12°C° 0 mm 1 m/s 730 mmHg 74%
    07:00 +13°C° 0 mm 1 m/s 730 mmHg 69%
    08:00 +14°C° 0.1 mm 1 m/s 731 mmHg 66%
    09:00 +15°C° 0.1 mm 1 m/s 731 mmHg 64%
    10:00 +16°C° 0.1 mm 1 m/s 731 mmHg 61%
    11:00 +16°C° 0.3 mm 1 m/s 730 mmHg 66%
    12:00 +15°C° 0.3 mm 1 m/s 730 mmHg 71%
    13:00 +15°C° 0.3 mm 1 m/s 730 mmHg 76%
    14:00 +16°C° 0.2 mm 1 m/s 730 mmHg 74%
    15:00 +16°C° 0.2 mm 1 m/s 730 mmHg 73%
    16:00 +16°C° 0.2 mm 1 m/s 730 mmHg 72%
    17:00 +15°C° 0.2 mm 1 m/s 729 mmHg 77%
    18:00 +14°C° 0.2 mm 1 m/s 729 mmHg 82%
    19:00 +13°C° 0.2 mm 1 m/s 729 mmHg 88%
    20:00 +12°C° 0 mm 1 m/s 729 mmHg 88%
    21:00 +12°C° 0 mm 1 m/s 730 mmHg 89%
    22:00 +10°C° 0 mm 0 m/s 730 mmHg 90%
    23:00 +9°C° 0 mm 0 m/s 730 mmHg 91%

    4 Juin, Jeudi

    Heure Température Précipitation Vent Pression Humidité
    00:00 +9°C° 0 mm 0 m/s 730 mmHg 92%
    01:00 +8°C° 0 mm 0 m/s 730 mmHg 93%
    02:00 +8°C° 0 mm 0 m/s 730 mmHg 93%
    03:00 +8°C° 0 mm 0 m/s 730 mmHg 94%
    04:00 +7°C° 0 mm 0 m/s 729 mmHg 94%
    05:00 +9°C° 0 mm 0 m/s 730 mmHg 92%
    06:00 +11°C° 0 mm 0 m/s 730 mmHg 89%
    07:00 +13°C° 0 mm 1 m/s 730 mmHg 86%
    08:00 +15°C° 0 mm 1 m/s 730 mmHg 79%
    09:00 +17°C° 0 mm 2 m/s 730 mmHg 72%
    10:00 +19°C° 0 mm 2 m/s 730 mmHg 65%
    11:00 +19°C° 0.2 mm 3 m/s 730 mmHg 67%
    12:00 +20°C° 0.2 mm 3 m/s 729 mmHg 69%
    13:00 +20°C° 0.2 mm 4 m/s 729 mmHg 71%
    14:00 +20°C° 0.5 mm 4 m/s 729 mmHg 73%
    15:00 +21°C° 0.5 mm 4 m/s 728 mmHg 75%
    16:00 +21°C° 0.5 mm 4 m/s 728 mmHg 77%
    17:00 +20°C° 0.2 mm 3 m/s 728 mmHg 81%
    18:00 +18°C° 0.2 mm 2 m/s 728 mmHg 86%
    19:00 +17°C° 0.2 mm 2 m/s 728 mmHg 91%
    20:00 +17°C° 0.4 mm 2 m/s 727 mmHg 92%
    21:00 +16°C° 0.4 mm 2 m/s 727 mmHg 93%
    22:00 +16°C° 0.4 mm 2 m/s 727 mmHg 95%
    23:00 +16°C° 0.1 mm 2 m/s 727 mmHg 94%

    5 Juin, Vendredi

    Heure Température Précipitation Vent Pression Humidité
    00:00 +15°C° 0.1 mm 2 m/s 727 mmHg 94%
    01:00 +15°C° 0.1 mm 2 m/s 726 mmHg 94%
    02:00 +15°C° 0.2 mm 2 m/s 726 mmHg 95%
    03:00 +14°C° 0.2 mm 2 m/s 727 mmHg 96%
    04:00 +14°C° 0.2 mm 1 m/s 727 mmHg 97%
    05:00 +15°C° 0.4 mm 1 m/s 727 mmHg 95%
    06:00 +16°C° 0.4 mm 1 m/s 728 mmHg 93%
    07:00 +17°C° 0.4 mm 2 m/s 729 mmHg 91%
    08:00 +18°C° 0.3 mm 2 m/s 729 mmHg 83%
    09:00 +20°C° 0.3 mm 3 m/s 730 mmHg 75%
    10:00 +21°C° 0.3 mm 4 m/s 730 mmHg 67%
    11:00 +21°C° 0.3 mm 5 m/s 730 mmHg 66%
    12:00 +22°C° 0.3 mm 5 m/s 730 mmHg 66%
    13:00 +22°C° 0.3 mm 6 m/s 730 mmHg 65%
    14:00 +22°C° 0.2 mm 6 m/s 730 mmHg 66%
    15:00 +22°C° 0.2 mm 6 m/s 730 mmHg 67%
    16:00 +22°C° 0.2 mm 5 m/s 730 mmHg 68%
    17:00 +21°C° 0.1 mm 5 m/s 731 mmHg 73%
    18:00 +19°C° 0.1 mm 4 m/s 731 mmHg 79%
    19:00 +18°C° 0.1 mm 3 m/s 731 mmHg 84%
    20:00 +17°C° 0 mm 2 m/s 731 mmHg 86%
    21:00 +15°C° 0 mm 1 m/s 731 mmHg 88%
    22:00 +14°C° 0 mm 1 m/s 732 mmHg 90%
    23:00 +13°C° 0 mm 1 m/s 732 mmHg 90%
    Voir plus